GFSSE_700_temp_057.txt.gz
Temp
9 8 7 6 7 6 6 6 7 5 7 7 8 7 5 5 5 6 6 7 7 7 7 7 7 7 7 7 7 7 7 6 6 6 6 6 6 6 6 6 6 6 6
8 8 7 8 8 7 7 6 6 6 7 6 8 8 5 5 5 6 6 6 7 7 7 7 7 7 7 6 6 6 6 6 6 6 6 6 6 6 5 5 5 5 5
8 8 8 8 8 7 6 6 5 6 6 7 8 8 6 5 5 6 6 6 6 6 6 7 7 6 6 6 6 6 6 5 6 6 6 6 6 5 6 5 5 5 6
7 8 7 7 7 7 6 6 6 5 5 6 7 7 6 5 6 6 6 6 6 6 6 6 7 6 6 6 6 6 6 6 6 5 5 6 6 6 5 5 5 5 5
7 7 7 6 6 6 6 6 6 6 6 6 6 7 6 6 6 6 5 5 5 6 6 6 6 6 6 5 5 5 6 6 5 5 5 5 5 5 5 5 5 5 5
6 6 6 6 6 6 5 6 5 5 5 5 6 6 6 6 6 5 5 5 5 5 6 5 5 5 5 5 5 5 5 5 5 5 5 5 5 5 5 5 5 5 5
5 6 6 5 5 5 5 5 5 5 5 5 5 6 6 6 6 5 4 4 5 5 5 5 5 5 4 4 5 5 5 5 5 4 5 5 5 5 5 5 4 4 4
5 5 5 5 5 5 4 4 4 4 4 4 4 5 6 6 5 4 4 4 4 5 5 4 4 4 4 4 4 4 5 4 4 4 5 5 5 4 4 4 4 4 4
5 4 3 4 4 4 3 3 3 3 3 3 4 5 5 6 5 4 4 4 4 4 4 4 4 4 3 4 4 4 4 4 4 4 4 4 4 4 4 4 4 4 4
5 4 3 3 3 4 3 2 3 3 3 3 4 4 5 5 4 3 3 3 3 3 3 3 3 3 3 3 3 4 4 4 4 4 4 4 3 4 4 4 3 3 3
4 4 4 2 3 2 2 3 3 3 1 2 3 3 4 5 4 3 3 3 4 3 3 3 3 3 3 3 3 3 4 4 4 3 3 3 3 3 3 3 3 3 3
4 3 2 1 1 1 2 2 1 2 2 2 1 2 3 4 3 3 3 3 3 3 3 3 3 3 3 3 3 3 3 3 3 3 3 3 3 3 3 3 2 2 3
4 4 3 3 2 2 2 2 2 2 3 3 -0 2 3 3 3 2 3 3 3 3 2 3 2 2 2 2 3 2 2 2 2 3 3 3 3 3 3 3 2 2 2
4 4 4 3 3 3 2 3 2 2 2 1 -1 2 2 3 2 2 3 3 3 2 2 2 3 3 3 2 2 2 2 2 2 2 2 3 3 2 3 3 3 3 3
3 4 4 3 3 2 2 2 1 1 0 1 -0 1 1 2 2 2 2 3 2 2 2 2 3 3 2 2 2 2 2 2 2 2 2 2 2 2 2 2 3 3 3
2 4 4 2 2 2 2 1 0 1 1 0 -1 -0 0 -0 1 1 2 2 1 2 2 2 3 2 1 1 1 2 2 2 2 2 2 2 2 2 2 2 2 2 2
2 3 3 2 3 3 2 1 1 1 0 -0 -1 -2 -1 -2 0 1 1 1 2 2 2 2 2 1 1 1 1 1 1 1 1 1 1 1 2 1 1 2 2 2 1
3 2 3 2 2 2 2 1 1 0 -0 -0 0 -2 -1 -1 -0 0 0 0 1 1 2 2 2 1 1 1 1 1 1 1 1 1 1 1 1 1 1 1 1 1 1
4 3 2 2 2 2 2 1 1 1 0 -0 0 -2 -1 -1 -1 -0 0 -0 0 0 1 1 2 1 1 1 1 1 1 1 1 1 1 1 1 1 0 0 0 -0 -1
4 4 3 2 2 2 2 2 2 1 0 -0 -0 -0 -1 -1 -1 -0 -0 -0 0 0 0 0 1 1 1 1 1 1 1 1 1 1 1 0 0 0 -0 -1 -1 -1 -1
4 3 3 0 1 2 2 1 2 1 0 -0 -0 -1 -1 -1 -1 -1 -1 -1 -1 -0 -0 -0 1 1 1 1 1 1 1 1 1 1 0 -0 -0 -1 -1 -2 -2 -2 -2
5 4 2 -0 1 2 1 1 1 1 1 -0 -1 -2 -1 -2 -2 -2 -2 -1 -1 -1 -1 0 0 0 0 1 1 1 1 1 1 0 0 -0 -1 -1 -1 -1 -2 -2 -2
5 5 4 2 2 2 1 2 1 1 0 -0 -1 -1 -1 -2 -2 -2 -2 -2 -2 -2 -2 -1 -0 -0 0 0 0 0 1 1 0 -0 -0 -1 -1 -1 -1 -1 -2 -2 -2
5 5 5 4 4 3 2 1 1 1 1 1 -0 -1 -2 -2 -2 -2 -2 -2 -2 -1 -1 -1 -0 -0 -0 -0 0 0 0 0 -0 0 -0 -1 -1 -2 -2 -1 -2 -2 -2
5 5 5 5 4 3 2 1 1 1 0 0 0 -1 -1 -2 -2 -2 -2 -2 -1 -1 -2 -1 -1 -0 -0 -0 -0 -0 -0 -0 -0 -0 -1 -1 -1 -2 -2 -2 -2 -2 -2
6 6 5 5 5 4 3 2 2 1 1 0 0 -1 -1 -1 -1 -2 -2 -2 -1 -2 -2 -1 -1 -0 -0 -0 -0 -0 -0 0 0 -1 -1 -1 -1 -1 -2 -2 -2 -3 -3

GFSSE_700_temp_060.txt.gz
Temp
9 9 9 8 7 7 7 7 7 6 6 6 7 7 8 8 7 7 7 7 7 7 7 7 7 7 8 7 7 7 7 7 7 7 6 6 6 6 6 6 6 6 6
8 8 8 8 7 8 7 6 6 5 5 5 5 7 8 8 7 6 6 7 7 7 7 7 7 7 7 7 7 7 6 6 6 6 6 6 6 6 5 5 5 6 6
8 8 8 7 8 8 7 8 7 6 5 5 5 6 6 8 7 6 6 6 6 6 6 6 7 7 7 7 6 6 6 6 6 6 5 6 6 5 5 5 5 5 5
8 8 7 8 8 7 7 7 7 7 6 5 5 5 5 6 7 6 6 6 6 6 6 6 6 6 6 6 6 6 6 5 5 5 5 5 5 5 5 5 5 5 5
7 7 8 7 7 6 7 7 6 7 5 5 5 6 5 6 7 7 6 6 5 5 6 6 6 6 5 5 5 5 5 5 5 5 5 5 5 5 5 5 5 5 5
7 7 7 6 6 6 6 6 6 6 6 5 5 5 5 6 7 6 5 5 5 5 5 6 6 5 5 5 5 5 5 5 5 5 5 5 5 5 5 4 4 4 4
6 6 6 5 5 5 5 5 5 5 5 5 5 5 5 6 7 6 5 5 5 5 5 5 5 5 5 5 4 5 5 5 5 5 5 5 5 5 5 5 5 5 5
5 5 5 5 5 5 5 4 4 4 4 5 5 5 4 5 6 6 5 5 5 5 4 4 4 4 4 4 4 4 5 4 5 5 5 5 5 5 5 4 4 4 4
5 5 4 4 3 4 3 4 4 5 4 4 4 4 4 5 5 6 5 5 4 4 4 4 4 4 4 4 4 4 4 4 5 5 5 4 4 4 4 4 4 4 4
5 5 4 3 1 2 3 4 4 4 4 4 4 4 4 4 5 5 5 4 4 4 3 3 3 4 3 3 4 4 4 4 4 4 4 4 4 4 4 4 4 4 4
4 4 4 3 3 3 2 2 3 3 3 3 3 3 4 3 4 4 4 4 3 3 3 2 3 3 3 3 3 3 4 4 3 4 4 4 3 4 4 4 4 4 4
4 4 3 2 2 2 2 2 3 3 3 3 2 2 3 3 3 3 4 3 3 2 2 2 3 3 3 3 3 3 3 3 3 3 3 3 3 4 4 3 4 3 3
4 4 2 3 2 2 1 1 2 3 1 2 2 1 2 3 3 3 3 2 2 2 2 2 2 3 3 3 3 3 3 3 3 3 3 3 3 3 3 3 3 3 3
3 3 3 2 2 3 3 2 1 1 1 2 1 0 -0 2 2 3 3 3 2 2 2 2 2 2 3 3 2 3 3 3 3 3 3 3 3 3 3 3 3 3 2
2 2 2 2 2 3 3 2 2 2 1 1 1 1 -1 -1 1 2 3 2 2 1 2 2 2 2 3 2 2 2 2 2 2 2 2 3 3 3 2 2 2 2 3
2 2 2 3 2 2 2 2 1 2 2 1 0 -1 -2 0 1 2 2 2 1 1 2 2 2 2 2 2 2 2 2 2 2 2 2 2 2 2 2 2 2 2 2
3 2 3 3 3 2 2 2 1 1 2 0 0 -2 -1 -0 0 2 2 2 2 1 1 2 2 2 2 1 2 2 1 1 1 1 1 2 2 2 1 2 2 2 2
5 4 3 3 2 3 2 2 2 1 0 0 0 -2 -1 -1 0 1 2 2 2 2 2 2 2 2 1 1 1 1 1 1 1 1 1 1 1 1 1 1 1 1 1
5 4 4 3 2 2 3 2 1 0 0 -0 0 -1 -2 -1 -1 -1 0 1 1 2 2 2 2 1 1 1 1 1 1 1 1 1 1 1 0 0 0 1 1 0 0
5 5 4 3 2 2 2 1 1 0 0 -0 -0 -2 -2 -2 -2 -1 -2 -1 1 1 1 1 1 1 1 1 1 1 1 1 1 1 1 0 0 -0 -0 0 -0 -0 -0
5 5 4 3 2 1 2 1 1 1 0 -0 -0 -0 -1 -2 -2 -1 -2 -1 0 0 0 0 1 0 1 1 1 1 1 1 1 1 1 0 0 -0 -1 -0 -0 -1 -0
5 5 5 2 1 2 1 1 2 2 1 0 -0 -0 -0 -1 -1 -1 -1 -1 -0 -0 -0 -1 -0 -0 0 0 0 0 0 1 1 1 0 -0 -0 -1 -1 -1 -1 -1 -1
5 6 5 3 1 1 1 2 1 1 1 1 -0 -0 -0 -2 -2 -1 -1 -1 -1 -1 -1 -2 -1 -1 -1 -0 -0 -0 -0 1 -0 0 -0 -0 -1 -1 -1 -1 -1 -1 -1
6 6 6 4 3 3 3 3 2 2 1 1 0 -0 -1 -1 -2 -2 -1 -1 -1 -2 -2 -2 -2 -2 -2 -1 -1 -0 -0 -0 0 -0 0 -0 -0 -1 -1 -1 -1 -1 -1
6 6 6 6 4 4 4 4 2 2 1 1 0 0 -0 -1 -2 -2 -2 -1 -2 -2 -2 -1 -1 -1 -1 -2 -1 -1 -1 -0 -0 -0 -0 -0 -0 -1 -1 -1 -1 -1 -1
6 6 6 6 5 5 4 3 3 1 2 1 1 -0 -1 -1 -1 -2 -1 -2 -2 -2 -2 -2 -1 -1 -1 -1 -1 -1 -0 -0 -0 -0 -0 -0 -1 -0 -1 -1 -0 -1 -1

GFSSE_700_temp_063.txt.gz
Temp
8 9 8 9 8 7 8 8 8 8 8 7 7 6 6 7 8 8 8 8 7 7 7 7 7 7 7 7 7 7 7 7 7 7 7 6 6 6 6 6 6 6 6
8 8 8 8 8 7 7 7 7 8 7 6 6 6 5 6 7 7 7 7 7 7 6 7 7 7 7 7 7 7 7 7 6 6 6 6 6 6 6 6 6 6 5
8 8 8 8 7 7 7 7 7 7 7 6 6 6 5 6 6 7 8 7 7 7 6 7 7 7 7 7 6 7 6 6 6 6 6 6 6 6 6 5 5 5 5
8 8 7 8 7 7 6 7 6 6 7 6 5 5 5 6 6 6 7 7 7 6 6 6 6 6 6 6 6 6 6 6 6 5 6 6 6 6 6 5 6 5 5
7 7 7 7 7 6 6 7 6 5 6 6 5 5 5 5 5 6 6 6 6 6 6 6 6 6 6 6 6 6 6 5 5 5 5 6 6 6 6 6 5 5 5
7 7 7 7 6 6 6 6 6 5 5 5 5 5 5 5 5 5 6 6 6 6 6 6 6 6 6 5 5 5 5 5 5 5 5 5 5 6 5 5 5 5 5
6 6 6 6 5 6 6 6 6 5 5 4 4 4 5 5 5 5 5 6 6 6 5 6 5 5 5 5 5 5 5 5 5 5 5 5 5 5 5 5 5 5 5
6 6 6 6 5 5 5 5 5 5 5 4 4 4 4 4 4 5 5 5 5 5 5 5 5 5 4 4 5 5 4 4 4 4 5 5 5 5 4 5 5 5 4
6 6 6 5 5 5 4 5 4 4 4 4 4 4 4 4 3 4 4 5 5 5 4 4 4 4 4 4 4 4 4 4 4 4 4 5 4 4 4 4 5 4 4
6 5 5 5 5 4 2 2 4 5 4 4 4 4 4 3 3 3 4 4 4 4 4 4 4 4 4 4 4 4 4 4 4 4 4 4 4 4 4 4 4 4 4
6 6 5 5 4 4 2 3 2 3 4 4 4 3 3 3 3 3 3 4 4 3 3 4 4 4 3 3 3 4 4 4 4 4 4 4 4 4 4 4 4 4 3
6 5 5 4 4 3 3 3 4 3 2 3 3 2 2 3 3 3 3 3 3 3 3 3 3 3 3 3 3 3 4 3 3 3 4 4 4 4 4 4 3 3 4
5 4 4 4 3 3 3 3 3 3 3 3 3 2 2 2 3 3 2 2 2 3 3 3 3 3 2 2 3 3 3 3 3 3 3 3 4 4 3 3 3 3 4
3 3 3 4 3 3 2 3 3 2 2 3 3 2 2 2 2 3 2 2 2 3 3 2 3 3 2 2 3 3 3 3 3 3 3 3 3 4 4 3 3 3 3
2 2 2 3 3 3 2 3 2 2 2 2 2 1 1 -1 0 2 2 2 2 3 2 2 2 2 2 2 2 2 2 3 3 2 2 3 3 3 3 3 3 3 3
3 3 4 3 2 3 2 2 2 2 2 1 2 1 1 0 0 1 2 2 2 2 2 2 2 3 2 2 2 2 2 2 2 2 2 2 2 2 2 2 2 2 2
4 4 4 4 3 3 3 2 2 2 2 2 2 1 0 -1 -1 -1 1 1 1 2 2 1 2 2 1 2 2 2 2 1 2 2 2 2 2 2 2 2 2 2 2
6 5 5 4 4 4 3 2 2 2 1 2 1 0 0 -1 -2 -1 0 1 1 2 2 2 1 1 1 1 2 1 1 1 1 1 2 2 2 2 2 2 2 2 2
6 6 5 4 3 3 3 2 2 2 1 2 1 0 0 -1 -2 -2 -1 0 1 2 2 1 1 1 1 1 1 1 1 1 1 1 1 1 1 1 2 2 2 2 2
6 6 5 5 4 3 3 2 2 1 1 1 0 0 -0 -2 -2 -2 -1 0 1 1 1 1 1 1 1 1 1 0 1 1 1 1 1 1 1 1 1 1 1 1 1
6 6 6 5 4 2 2 2 2 2 1 0 0 -0 -1 -2 -2 -2 -2 -1 -1 -0 1 0 1 1 1 1 1 1 1 1 1 1 1 1 1 1 1 0 1 1 1
6 6 6 5 3 2 2 2 2 2 1 0 0 -0 -0 -2 -2 -2 -2 -2 -2 -2 -1 -1 0 0 1 1 0 0 0 0 1 1 1 1 1 0 0 -0 -0 -0 -0
6 6 6 5 3 1 1 2 2 1 1 1 0 -0 -0 -1 -2 -2 -1 -1 -1 -2 -2 -1 -0 0 -0 0 -0 -0 -1 -1 -1 -0 0 0 0 0 -0 -0 -0 -1 -1
6 6 6 6 5 2 2 2 2 3 2 1 1 1 -0 -0 -1 -2 -2 -1 -2 -2 -2 -1 -0 -0 -1 -0 -1 -1 -0 -0 -0 -1 1 0 0 -0 -0 -1 -1 -0 -1
7 6 6 6 6 5 5 3 1 2 2 2 1 0 0 -1 -0 -1 -1 -1 -1 -1 -2 -1 -1 -1 -1 -1 -1 -1 -1 -1 -1 -0 -0 0 0 -0 -0 -1 -1 -1 -1
7 6 6 6 6 5 5 4 4 3 2 1 1 1 1 0 -0 0 -0 -1 -1 -1 -2 -2 -2 -2 -1 -0 -0 -1 -0 -1 -0 -0 -0 -0 -0 0 -0 -0 -0 -1 -1

GFSSE_700_temp_069.txt.gz
Temp
9 9 9 9 8 8 8 8 8 8 8 7 7 7 8 8 8 7 7 7 7 8 8 8 8 7 7 7 7 7 7 7 7 7 7 7 6 6 6 6 6 6 6
9 9 9 9 9 8 7 7 7 7 7 7 7 7 7 7 8 8 7 7 8 8 8 8 8 7 7 7 7 7 7 7 7 7 7 7 6 6 6 6 6 6 6
9 9 9 8 8 8 7 7 7 7 7 6 6 6 6 6 7 7 7 7 7 7 8 8 8 7 7 7 7 6 7 7 6 6 6 7 7 6 6 6 6 6 6
8 8 8 9 8 8 7 7 7 7 6 6 5 5 6 6 6 6 7 7 7 7 7 7 7 7 7 7 7 7 7 6 7 7 6 7 6 6 6 6 6 6 6
8 8 8 8 8 8 7 7 7 7 6 6 5 5 5 5 6 6 7 7 7 7 7 7 6 7 6 6 6 6 6 7 7 6 6 6 6 6 6 6 6 6 6
7 7 8 8 8 8 7 6 6 6 5 5 5 4 4 5 5 6 6 7 7 6 6 6 6 6 6 6 6 6 7 7 6 6 6 6 6 6 6 6 6 6 6
7 7 7 7 7 7 7 6 5 6 5 5 4 4 4 4 5 5 6 6 7 6 5 6 6 6 6 5 6 6 6 6 5 6 6 6 6 6 6 6 6 5 5
7 7 7 7 7 6 7 6 5 5 4 4 5 4 5 4 4 5 5 5 5 6 5 5 5 6 5 5 5 6 6 6 6 5 5 6 6 6 6 6 5 6 5
7 7 7 7 6 6 6 5 5 4 4 3 4 5 4 4 4 5 5 5 5 5 5 5 5 5 5 5 5 6 6 5 5 5 5 6 6 6 5 5 5 5 5
7 7 7 6 6 6 5 5 5 4 3 3 3 4 3 3 4 4 4 5 5 5 5 5 5 5 4 5 4 5 5 5 5 5 5 5 5 5 5 5 5 5 5
7 7 6 6 6 6 5 5 5 5 4 3 3 2 1 3 4 4 4 5 4 5 4 4 4 4 4 4 4 5 5 4 5 5 5 5 5 5 5 5 4 4 4
8 7 5 5 5 5 5 5 5 5 4 4 3 1 4 3 4 4 4 4 4 4 5 4 4 4 4 4 4 4 5 4 4 4 4 4 4 4 4 4 4 4 4
7 6 5 3 4 4 5 5 5 4 5 3 3 3 3 2 3 3 3 4 3 3 4 4 4 4 4 3 3 4 4 4 4 4 4 4 4 4 4 4 4 4 4
7 5 4 4 3 4 4 4 4 4 3 3 2 2 3 2 3 3 4 4 4 3 4 3 3 3 3 3 3 4 4 4 4 4 4 3 4 4 4 4 4 4 4
6 6 5 5 4 4 5 4 4 4 3 3 4 3 2 2 3 4 3 3 4 4 4 3 3 2 2 3 3 3 4 3 4 4 3 3 3 4 4 3 4 4 4
7 7 6 6 5 4 5 4 3 3 3 3 2 2 2 2 3 3 3 3 4 3 3 3 2 2 3 2 2 3 3 3 4 3 3 3 3 3 3 3 3 3 3
7 7 7 6 6 5 5 4 3 3 2 2 2 2 2 2 2 2 3 3 3 3 3 2 2 2 3 2 1 3 3 3 3 3 2 2 3 3 3 3 3 3 3
7 7 7 6 5 5 4 4 4 3 3 2 1 3 2 2 2 2 2 3 2 2 2 2 2 2 2 2 2 2 3 3 2 2 2 2 2 2 2 2 2 2 2
7 7 6 6 6 4 4 4 3 3 2 3 2 2 2 2 2 2 1 2 2 1 2 2 2 2 2 1 1 1 2 3 1 2 2 2 2 2 2 1 2 2 2
7 7 6 6 6 5 4 4 3 3 3 2 2 2 2 2 2 1 0 0 1 1 1 1 2 1 1 1 1 1 1 1 1 2 1 1 1 1 1 1 1 2 2
7 7 6 6 5 5 4 3 2 2 3 3 1 2 2 2 1 1 1 -0 1 -0 0 0 1 1 1 1 1 0 0 0 1 1 2 1 1 1 1 1 1 2 2
7 7 7 6 6 5 4 2 2 2 2 3 1 2 2 1 1 1 1 -0 -0 0 -1 -0 -0 1 0 1 1 -0 1 1 1 1 1 1 1 1 1 1 1 1 1
7 7 7 6 6 5 4 2 2 2 3 3 1 2 2 2 1 1 1 0 1 0 0 0 -0 -0 1 1 0 -0 0 1 1 1 0 -0 0 0 0 1 1 1 1
7 7 7 7 6 6 5 3 2 2 3 3 1 2 1 1 0 0 0 0 0 0 -0 -2 -1 -0 0 -1 -1 -2 -2 -1 0 0 0 0 0 1 1 1 1 1 -0
8 7 7 7 6 6 5 5 3 2 3 3 2 1 1 0 -0 0 0 -0 -0 -1 -2 -2 -1 -1 -0 -0 -1 -2 -2 -1 -0 -1 -0 -1 -0 0 0 0 0 0 0
8 8 7 7 7 7 6 5 4 3 2 3 3 1 0 0 0 0 0 -1 -2 -2 -1 -1 -1 -0 0 -1 -1 -2 -1 -1 -1 -1 -1 -1 -1 -0 -0 -0 -0 -0 0